Flight Track Log - Related Links

Times and Time Zones

All times are in EDT time to prevent confusion due to time zone crossing. See the EJA729 flight status page for this flight to view local times or setup timezone preferences in your user account.

Time Position Orientation Groundspeed Altitude Reporting Facility
EDT Latitude Longitude Course Direction KTS MPH feet Rate Location/Type
Tue 10:33:31 AM 33.9240 -118.4720 260° West 2,700  Level FlightAware ADS-B
Tue 10:37:47 AM 33.6180 -118.3790 166° South 353 406 11,000 1,688 Climbing FlightAware ADS-B
Tue 10:38:26 AM 33.5840 -118.3160 123° Southeast 344 396 11,000  Level FlightAware ADS-B
Tue 10:39:11 AM 33.5460 -118.2440 122° Southeast 340 391 11,000  Level FlightAware ADS-B
Tue 10:40:02 AM 33.5090 -118.1760 123° Southeast 338 389 11,000  Level FlightAware ADS-B
Tue 10:41:33 AM 33.4430 -118.0550 123° Southeast 338 389 11,000 47 Level FlightAware ADS-B
Tue 10:42:11 AM 33.3833 -117.9333 123° Southeast 379 436 11,100 61 Climbing Southern California TRACON
Tue 10:43:11 AM 33.3333 -117.8333 121° Southeast 372 428 11,100  Level Southern California TRACON
Tue 10:44:11 AM 33.2667 -117.7333 129° Southeast 382 440 11,100  Level Southern California TRACON
Tue 10:45:06 AM 33.2000 -117.6500 134° Southeast 383 441 11,100 -347 Level Southern California TRACON
Tue 10:46:12 AM 33.1167 -117.5667 140° Southeast 355 409 10,400 -950 Descending Southern California TRACON
Tue 10:47:06 AM 33.0500 -117.5000 140° Southeast 304 350 9,200 -1,368 Descending Southern California TRACON
Tue 10:48:06 AM 32.9833 -117.4333 140° Southeast 311 358 7,800 -1,000 Descending Southern California TRACON
Tue 10:49:12 AM 32.9167 -117.3667 140° Southeast 302 348 7,100 -331 Descending Southern California TRACON
Tue 10:50:13 AM 32.8833 -117.2667 112° Southeast 304 350 7,100  Level Southern California TRACON
Tue 10:51:13 AM 32.8500 -117.1833 115° Southeast 316 364 7,100 -100 Level Southern California TRACON
Tue 10:52:13 AM 32.8167 -117.0833 112° Southeast 303 349 6,900 -900 Descending Southern California TRACON
Tue 10:53:13 AM 32.7833 -117.0000 115° Southeast 289 333 5,300 -947 Descending Southern California TRACON
Tue 10:54:07 AM 32.7333 -116.9333 132° Southeast 282 325 5,100 -632 Descending Southern California TRACON
Tue 10:55:07 AM 32.6833 -116.9500 196° South 219 252 4,100 -952 Descending Southern California TRACON
Tue 10:56:13 AM 32.7000 -117.0167 287° West 200 230 3,100 -1,000 Descending Southern California TRACON
Tue 10:57:13 AM 32.7000 -117.0667 270° West 166 191 2,000 -950 Descending Southern California TRACON
Tue 10:58:13 AM 32.7167 -117.1167 292° West 142 163 1,200 -720 Descending Southern California TRACON
Tue 10:58:53 AM 32.7222 -117.1414 285° West 143 165 800 -535 Descending Los Angeles Center
Tue 10:59:54 AM 32.7344 -117.1919 286° West 143 165 300 -492 Descending Los Angeles Center

Login

Don't have an account? Register now (free) for customized features, flight alerts, and more!